Location: Potomac Astrometric Observatory
(39.0475°N, 77.2064°W)
Time: 15:55:48
(UTC-04:00)

Envisat - Pass Details

Date: 28 March 2019
Orbit: 764 x 766 km, 98.2° (Epoch: 22 April)

Event Time Altitude Azimuth Distance (km) Brightness Sun altitude
Rises 20:54:06 0° 205° (SSW) 3,218 6.3 -17.1°
Reaches altitude 10° 20:57:04 10° 223° (SW) 2,297 5.8 -17.6°
Maximum altitude 21:00:35 19° 267° (W) 1,771 5.7 -18.2°
Drops below altitude 10° 21:04:07 10° 312° (NW) 2,308 6.5 -18.9°
Sets 21:07:07 0° 330° (NNW) 3,239 7.1 -19.4°
